Meteo pe oră la Bolshie Ovchinenki

Astăzi, 6 Mai, Joi

Timp Temperatura Precipitaţii Vânt Presiune Umiditate
00:00 +9°C° 0 mm 5 m/s 734 mmHg 85%
01:00 +8°C° 0 mm 5 m/s 733 mmHg 86%
02:00 +8°C° 0 mm 5 m/s 733 mmHg 86%
03:00 +8°C° 0.1 mm 6 m/s 732 mmHg 88%
04:00 +8°C° 0.1 mm 6 m/s 732 mmHg 91%
05:00 +8°C° 0.1 mm 6 m/s 732 mmHg 94%
06:00 +6°C° 1.4 mm 7 m/s 732 mmHg 93%
07:00 +5°C° 1.4 mm 7 m/s 732 mmHg 93%
08:00 +4°C° 1.4 mm 7 m/s 732 mmHg 93%
09:00 +5°C° 0.8 mm 7 m/s 733 mmHg 90%
10:00 +5°C° 0.8 mm 6 m/s 734 mmHg 87%
11:00 +6°C° 0.8 mm 5 m/s 734 mmHg 84%
12:00 +7°C° 0.3 mm 6 m/s 735 mmHg 77%
13:00 +9°C° 0.3 mm 8 m/s 735 mmHg 71%
14:00 +10°C° 0.3 mm 9 m/s 736 mmHg 65%
15:00 +9°C° 0.3 mm 8 m/s 736 mmHg 67%
16:00 +7°C° 0.3 mm 8 m/s 737 mmHg 69%
17:00 +8°C° 0.3 mm 7 m/s 737 mmHg 72%
18:00 +6°C° 0 mm 7 m/s 738 mmHg 71%
19:00 +5°C° 0 mm 6 m/s 738 mmHg 70%
20:00 +5°C° 0 mm 5 m/s 739 mmHg 69%
21:00 +3°C° 0 mm 5 m/s 739 mmHg 72%
22:00 +3°C° 0 mm 4 m/s 739 mmHg 76%
23:00 +3°C° 0 mm 4 m/s 739 mmHg 80%

Mâine, 7 Mai, Vineri

Timp Temperatura Precipitaţii Vânt Presiune Umiditate
00:00 +1°C° 0 mm 4 m/s 739 mmHg 80%
01:00 +1°C° 0 mm 4 m/s 739 mmHg 80%
02:00 +1°C° 0 mm 4 m/s 740 mmHg 80%
03:00 +1°C° 0 mm 4 m/s 740 mmHg 80%
04:00 +2°C° 0 mm 5 m/s 739 mmHg 80%
05:00 +2°C° 0 mm 6 m/s 739 mmHg 81%
06:00 +4°C° 0.1 mm 6 m/s 740 mmHg 80%
07:00 +5°C° 0.1 mm 6 m/s 740 mmHg 79%
08:00 +7°C° 0.1 mm 5 m/s 740 mmHg 78%
09:00 +8°C° 0.1 mm 6 m/s 740 mmHg 72%
10:00 +9°C° 0.1 mm 6 m/s 740 mmHg 67%
11:00 +10°C° 0.1 mm 6 m/s 740 mmHg 61%
12:00 +11°C° 0.1 mm 6 m/s 739 mmHg 60%
13:00 +11°C° 0.1 mm 6 m/s 739 mmHg 59%
14:00 +13°C° 0.1 mm 5 m/s 739 mmHg 59%
15:00 +12°C° 0.5 mm 5 m/s 738 mmHg 69%
16:00 +9°C° 0.5 mm 5 m/s 738 mmHg 79%
17:00 +8°C° 0.5 mm 5 m/s 738 mmHg 89%
18:00 +8°C° 0.7 mm 5 m/s 737 mmHg 91%
19:00 +7°C° 0.7 mm 5 m/s 737 mmHg 94%
20:00 +7°C° 0.7 mm 5 m/s 736 mmHg 96%
21:00 +7°C° 0.1 mm 5 m/s 736 mmHg 96%
22:00 +7°C° 0.1 mm 4 m/s 735 mmHg 96%
23:00 +7°C° 0.1 mm 4 m/s 735 mmHg 96%

Poimâine, 8 Mai, Sâmbătă

Timp Temperatura Precipitaţii Vânt Presiune Umiditate
00:00 +7°C° 0 mm 4 m/s 735 mmHg 96%
01:00 +7°C° 0 mm 4 m/s 735 mmHg 95%
02:00 +7°C° 0 mm 4 m/s 735 mmHg 95%
03:00 +6°C° 0 mm 4 m/s 734 mmHg 95%
04:00 +6°C° 0 mm 4 m/s 734 mmHg 96%
05:00 +6°C° 0 mm 4 m/s 734 mmHg 96%
06:00 +5°C° 0.1 mm 5 m/s 734 mmHg 93%
07:00 +5°C° 0.1 mm 5 m/s 734 mmHg 90%
08:00 +4°C° 0.1 mm 6 m/s 734 mmHg 87%
09:00 +3°C° 0.1 mm 6 m/s 734 mmHg 90%
10:00 +3°C° 0.1 mm 6 m/s 735 mmHg 92%
11:00 +2°C° 0.1 mm 6 m/s 735 mmHg 94%
12:00 +2°C° 0.3 mm 7 m/s 736 mmHg 94%
13:00 +1°C° 0.3 mm 8 m/s 737 mmHg 94%
14:00 +1°C° 0.3 mm 9 m/s 738 mmHg 94%
15:00 +2°C° 0.1 mm 8 m/s 738 mmHg 88%
16:00 +4°C° 0.1 mm 8 m/s 739 mmHg 81%
17:00 +5°C° 0.1 mm 8 m/s 739 mmHg 75%
18:00 +4°C° 0 mm 7 m/s 740 mmHg 77%
19:00 +3°C° 0 mm 6 m/s 741 mmHg 79%
20:00 +2°C° 0 mm 5 m/s 741 mmHg 80%
21:00 +2°C° 0 mm 5 m/s 742 mmHg 83%
22:00 +2°C° 0 mm 5 m/s 742 mmHg 87%
23:00 +1°C° 0 mm 5 m/s 743 mmHg 90%

9 Mai, Duminică

Timp Temperatura Precipitaţii Vânt Presiune Umiditate
00:00 +1°C° 0 mm 5 m/s 743 mmHg 91%
01:00 0°C° 0 mm 4 m/s 744 mmHg 93%
02:00 -1°C° 0 mm 4 m/s 744 mmHg 94%
03:00 -1°C° 0 mm 4 m/s 745 mmHg 93%
04:00 0°C° 0 mm 3 m/s 746 mmHg 92%
05:00 -1°C° 0 mm 3 m/s 746 mmHg 90%
06:00 +1°C° 0 mm 3 m/s 747 mmHg 82%
07:00 +3°C° 0 mm 4 m/s 747 mmHg 73%
08:00 +5°C° 0 mm 4 m/s 748 mmHg 64%
09:00 +6°C° 0 mm 4 m/s 748 mmHg 58%
10:00 +8°C° 0 mm 4 m/s 749 mmHg 52%
11:00 +10°C° 0 mm 4 m/s 749 mmHg 46%
12:00 +10°C° 0 mm 3 m/s 750 mmHg 45%
13:00 +11°C° 0 mm 3 m/s 750 mmHg 43%
14:00 +12°C° 0 mm 3 m/s 750 mmHg 42%
15:00 +12°C° 0 mm 3 m/s 750 mmHg 44%
16:00 +12°C° 0 mm 3 m/s 750 mmHg 46%
17:00 +13°C° 0 mm 2 m/s 750 mmHg 48%
18:00 +10°C° 0 mm 2 m/s 750 mmHg 54%
19:00 +9°C° 0 mm 2 m/s 751 mmHg 60%
20:00 +7°C° 0 mm 2 m/s 751 mmHg 66%
21:00 +6°C° 0 mm 2 m/s 751 mmHg 68%
22:00 +6°C° 0 mm 2 m/s 751 mmHg 70%
23:00 +5°C° 0 mm 2 m/s 752 mmHg 73%

10 Mai, Luni

Timp Temperatura Precipitaţii Vânt Presiune Umiditate
00:00 +4°C° 0 mm 3 m/s 752 mmHg 74%
01:00 +3°C° 0 mm 3 m/s 752 mmHg 75%
02:00 +3°C° 0 mm 3 m/s 752 mmHg 76%
03:00 +3°C° 0 mm 3 m/s 752 mmHg 77%
04:00 +3°C° 0 mm 3 m/s 753 mmHg 78%
05:00 +3°C° 0 mm 3 m/s 753 mmHg 78%
06:00 +5°C° 0 mm 3 m/s 753 mmHg 74%
07:00 +7°C° 0 mm 4 m/s 753 mmHg 69%
08:00 +10°C° 0 mm 4 m/s 753 mmHg 64%
09:00 +12°C° 0 mm 4 m/s 753 mmHg 61%
10:00 +13°C° 0 mm 4 m/s 753 mmHg 57%
11:00 +15°C° 0 mm 4 m/s 753 mmHg 54%
12:00 +15°C° 0 mm 4 m/s 753 mmHg 52%
13:00 +17°C° 0 mm 4 m/s 753 mmHg 51%
14:00 +17°C° 0 mm 4 m/s 753 mmHg 49%
15:00 +17°C° 0 mm 4 m/s 753 mmHg 53%
16:00 +17°C° 0 mm 4 m/s 753 mmHg 56%
17:00 +17°C° 0 mm 4 m/s 752 mmHg 60%
18:00 +14°C° 0 mm 3 m/s 752 mmHg 65%
19:00 +12°C° 0 mm 3 m/s 752 mmHg 71%
20:00 +10°C° 0 mm 3 m/s 752 mmHg 76%
21:00 +9°C° 0 mm 3 m/s 752 mmHg 77%
22:00 +9°C° 0 mm 3 m/s 752 mmHg 78%
23:00 +8°C° 0 mm 3 m/s 753 mmHg 80%

11 Mai, Marţi

Timp Temperatura Precipitaţii Vânt Presiune Umiditate
00:00 +8°C° 0 mm 3 m/s 753 mmHg 80%
01:00 +7°C° 0 mm 3 m/s 753 mmHg 79%
02:00 +7°C° 0 mm 3 m/s 753 mmHg 79%
03:00 +7°C° 0 mm 3 m/s 753 mmHg 80%
04:00 +5°C° 0 mm 3 m/s 752 mmHg 80%
05:00 +5°C° 0 mm 3 m/s 752 mmHg 81%
06:00 +8°C° 0 mm 3 m/s 752 mmHg 75%
07:00 +10°C° 0 mm 4 m/s 752 mmHg 70%
08:00 +12°C° 0 mm 4 m/s 752 mmHg 64%
09:00 +13°C° 0 mm 4 m/s 752 mmHg 59%
10:00 +15°C° 0 mm 4 m/s 752 mmHg 54%
11:00 +17°C° 0 mm 4 m/s 752 mmHg 48%
12:00 +18°C° 0 mm 4 m/s 752 mmHg 50%
13:00 +18°C° 0 mm 4 m/s 751 mmHg 52%
14:00 +19°C° 0 mm 4 m/s 751 mmHg 54%
15:00 +19°C° 0 mm 3 m/s 751 mmHg 58%
16:00 +19°C° 0 mm 3 m/s 751 mmHg 62%
17:00 +20°C° 0 mm 3 m/s 750 mmHg 66%
18:00 +18°C° 0 mm 3 m/s 750 mmHg 72%
19:00 +16°C° 0 mm 3 m/s 750 mmHg 79%
20:00 +14°C° 0 mm 3 m/s 750 mmHg 85%
21:00 +13°C° 0 mm 3 m/s 750 mmHg 88%
22:00 +13°C° 0 mm 3 m/s 750 mmHg 90%
23:00 +12°C° 0 mm 4 m/s 750 mmHg 93%
Arată mai mult

Formular de consimțământ

Meteoprog și furnizorii noștri de servicii pot stoca și accesa date personale, precum cookies, identificatori de dispozitiv sau alte tehnologii similare pe dispozitivul dumneavoastră și procesa astfel de date pentru a personaliza conținutul și reclamele, dar și pentru a oferi caracteristici de social media și pentru a analiza traficul.

  • Stocarea și/sau accesarea informațiilor pe dispozitivul dumneavoastră

    Cookies, identificatori de dispozitiv sau alte informații pot fi stocate sau accesate pe dispozitiv în scopurile indicate mai sus.

  • Reclame și conținut personalizat, evaluarea reclamelor și a conținutului, informații despre audiențe și dezvoltarea produselor

    Reclamele și conținutul pot fi personalizate pe baza unui profil. Pot fi adăugate date suplimentare pentru a personaliza mai bine reclamele și conținutul. Performanța reclamelor și conținutului poate fi măsurată. Pot fi obținute informații despre utilizatorii care au văzut reclamele și conținutul. Aceste date pot fi utilizate pentru a dezvolta sau îmbunătăți experiența utilizatorilor, sistemele și software-ul.

Dând clic pe ‘Sunt de acord’, permiteți utilizarea cookie-urilor menționate, a identificatorilor de dispozitiv, balizelor web sau altor tehnologii similare. Setările pot fi modificate din browser-ul dispozitivului dumneavoastră.

În anumite scopuri, interesele legitime pot prima asupra consimțământului. Puteți citi mai multe informații în acest sens în Politica privind Confidențialitatea Datelor și Cookie.